sat.trackr.live / text

‹ back to catalog

STARLINK-37156

NORAD 68263 · 2026-055B

PAYLOAD ACTIVE UNKNOWN

§ Identity

Operator
Country
US
Launch date
2026-03-19
Launch site
AFETR
Launch vehicle
Mass (kg)
RCS (m²)

Purposes: comms

External: N2YO · Heavens-Above · Gunter

§ Orbital elements

Epoch: 2026-09-20T01:50:41.905824Z

Period
93.85 min
Inclination
53.1562°
Eccentricity
0.0001031
Mean motion
15.34409497 rev/d
Perigee alt
462.0 km
Apogee alt
463.4 km
Semi-major
6,840.8 km
B*
4.2882e-4
RAAN
133.4479°
Arg perigee
88.3995°
Mean anomaly
271.7126°
Rev number
2,973

§ Raw data

STARLINK-371561 68263U 26055B   26263.07687391  .00014144  00000+0  42882-3 0  99932 68263  53.1562 133.4479 0001031  88.3995 271.7126 15.34409497 29730

JSON: /api/v1/satellites/68263 · /tle

For live sub-satellite position, see the globe view (requires WebGL).

§ Visibility from observer

Set your observer location to see the next 7 days of passes ≥ 10°. The values pass through the URL so the page stays shareable.

No JS? Fill the form by hand. The geolocation button needs JavaScript.